Location: Newark
(40.9833°N, 0.0333°W)
Time: 01:25:04
(UTC+00:00)

Vanguard 2 Rocket - Visible Passes

Search period start: 27 October 2020 00:00
Search period end: 06 November 2020 00:00
Orbit: 554 x 3326 km, 32.9° (Epoch: 26 October)

Date Brightness Start Highest point End Pass type
(mag) Time Alt. Az. Time Alt. Az. Time Alt. Az.
27 Oct 7.8 19:28:13 10° SW 19:30:26 25° SSW 19:30:26 25° SSW visible
28 Oct 7.5 18:29:37 10° SW 18:32:57 25° SSE 18:34:10 22° SE visible
29 Oct 7.8 17:31:06 10° SSW 17:33:53 18° SSE 17:36:48 10° ESE visible
29 Oct 8.2 19:42:11 10° WSW 19:43:43 20° SW 19:43:43 20° SW visible
30 Oct 7.2 18:43:23 10° SW 18:46:51 29° S 18:47:27 28° SSE visible
31 Oct 7.5 17:44:31 10° SW 17:47:45 24° S 17:51:08 10° ESE visible
31 Oct 8.7 19:56:19 10° WSW 19:57:00 14° WSW 19:57:00 14° WSW visible
01 Nov 7.3 18:57:21 10° WSW 19:00:45 28° S 19:00:45 28° S visible
02 Nov 7.4 17:58:17 10° SW 18:01:41 27° S 18:04:32 13° ESE visible
03 Nov 7.7 19:11:31 10° WSW 19:14:07 23° SSW 19:14:07 23° SSW visible
04 Nov 7.4 18:12:14 10° WSW 18:15:38 26° S 18:17:55 16° SE visible
05 Nov 7.5 17:12:44 10° WSW 17:16:31 28° S 17:19:55 10° ESE visible
05 Nov 8.3 19:25:56 10° WSW 19:27:33 16° SW 19:27:33 16° SW visible
